Location: Northcutt
(34.7304°N, 84.4305°W)
Time: 08:45:00
(UTC+00:00)

S-56A Canister/Altair - Pass Details

Date: 05 October 2022
Orbit: 638 x 2494 km, 38.9° (Epoch: 08 December)

Event Time Altitude Azimuth Distance (km) Brightness Sun altitude
Rises 03:54:48 0° 215° (SW) 6,158 12.0 -53.3°
Enters shadow 03:55:12 - 214° (SW) 6,061 12.0 -53.3°
Reaches altitude 10° 03:59:12 10° 209° (SSW) 5,126 - -53.8°
Maximum altitude 04:12:35 44° 144° (SE) 2,816 - -55.5°
Drops below altitude 10° 04:23:03 10° 78° (ENE) 4,059 - -56.6°
Sets 04:26:04 0° 72° (ENE) 4,813 - -56.9°
